ANA1230 RJCC-RJSS

Flight info

Callsign ANA1230
Flight time 1h 25m
Altitude 32000
Route TOBBY Y10 HPE Y102 SDE
Aircraft A320/M-SDE3FGHIRWY/LB1

Departure

Time 2026-05-07 12:55
Airport New Chitose Airport (RJCC)

Arrival

Time 2026-05-07 14:20
Airport Sendai Airport (RJSS)
Time Latitude Longitude Altitude Speed Heading
2026-05-07 12:39 42.78786 141.68274 77 ft 0 kts 263°
2026-05-07 12:48 42.78788 141.68303 76 ft 4 kts 263°
2026-05-07 12:48 42.78792 141.68340 80 ft 4 kts 263°
2026-05-07 12:49 42.78795 141.68369 72 ft 4 kts 250°
2026-05-07 12:49 42.78809 141.68397 73 ft 4 kts 202°
2026-05-07 12:49 42.78833 141.68400 73 ft 4 kts 167°
2026-05-07 12:49 42.78842 141.68397 78 ft 0 kts 164°
2026-05-07 12:52 42.78840 141.68398 78 ft 2 kts 164°
2026-05-07 12:52 42.78812 141.68414 75 ft 7 kts 148°
2026-05-07 12:53 42.78790 141.68485 75 ft 9 kts 77°
2026-05-07 12:53 42.78802 141.68561 76 ft 7 kts 79°
2026-05-07 12:53 42.78809 141.68614 79 ft 4 kts 80°
2026-05-07 12:53 42.78811 141.68634 75 ft 0 kts 81°
2026-05-07 12:54 42.78815 141.68672 79 ft 7 kts 82°
2026-05-07 12:54 42.78816 141.68802 90 ft 14 kts 113°
2026-05-07 12:54 42.78758 141.68834 94 ft 7 kts 176°
2026-05-07 12:54 42.78648 141.68850 94 ft 42 kts 172°
2026-05-07 12:55 42.78111 141.68944 84 ft 110 kts 173°
2026-05-07 12:55 42.77182 141.69105 84 ft 160 kts 173°
2026-05-07 12:55 42.76076 141.69312 776 ft 153 kts 171°
2026-05-07 12:55 42.75038 141.69517 1569 ft 150 kts 173°
2026-05-07 12:56 42.73980 141.69733 2109 ft 162 kts 174°
2026-05-07 12:56 42.72791 141.69974 2404 ft 183 kts 174°
2026-05-07 12:56 42.71451 141.70240 2634 ft 207 kts 175°
2026-05-07 12:56 42.69942 141.70537 3002 ft 232 kts 175°
2026-05-07 12:57 42.68271 141.70870 3479 ft 252 kts 176°
2026-05-07 12:57 42.66534 141.71221 4271 ft 257 kts 178°
2026-05-07 12:57 42.64747 141.71428 5146 ft 259 kts 182°
2026-05-07 12:57 42.62933 141.71556 6038 ft 263 kts 183°
2026-05-07 12:58 42.61096 141.71655 6968 ft 267 kts 183°
2026-05-07 12:58 42.59225 141.71752 7896 ft 270 kts 183°
2026-05-07 12:58 42.57337 141.71856 8804 ft 273 kts 183°
2026-05-07 12:58 42.55427 141.71968 9665 ft 277 kts 182°
2026-05-07 12:59 42.53488 141.72087 10405 ft 284 kts 183°
2026-05-07 12:59 42.51466 141.72203 10666 ft 306 kts 182°
2026-05-07 12:59 42.49256 141.72328 10855 ft 330 kts 182°
2026-05-07 12:59 42.46885 141.72469 11012 ft 351 kts 182°
2026-05-07 13:00 42.44490 141.72624 11469 ft 360 kts 182°
2026-05-07 13:00 42.41971 141.72796 12135 ft 364 kts 182°
2026-05-07 13:00 42.39431 141.72972 12812 ft 367 kts 182°
2026-05-07 13:00 42.36868 141.73146 13488 ft 370 kts 182°
2026-05-07 13:01 42.34288 141.73317 14086 ft 373 kts 183°
2026-05-07 13:01 42.31681 141.73483 14661 ft 376 kts 183°
2026-05-07 13:01 42.29093 141.73644 15223 ft 378 kts 184°
2026-05-07 13:01 42.26454 141.73808 15782 ft 381 kts 184°
2026-05-07 13:02 42.23797 141.73974 16345 ft 383 kts 184°
2026-05-07 13:02 42.21132 141.74142 16897 ft 386 kts 184°
2026-05-07 13:02 42.18437 141.74312 17445 ft 388 kts 185°
2026-05-07 13:02 42.15728 141.74484 17967 ft 391 kts 185°
2026-05-07 13:03 42.13006 141.74656 18445 ft 393 kts 185°
2026-05-07 13:03 42.10264 141.74829 18896 ft 395 kts 185°
2026-05-07 13:03 42.07509 141.75002 19346 ft 398 kts 185°
2026-05-07 13:03 42.04775 141.75177 19785 ft 400 kts 185°
2026-05-07 13:04 42.01989 141.75357 20228 ft 402 kts 185°
2026-05-07 13:04 41.99188 141.75534 20675 ft 404 kts 186°
2026-05-07 13:04 41.96376 141.75710 21082 ft 406 kts 185°
2026-05-07 13:04 41.93535 141.75889 21490 ft 409 kts 186°
2026-05-07 13:05 41.90689 141.76073 21898 ft 412 kts 185°
2026-05-07 13:05 41.87818 141.76304 22299 ft 415 kts 185°
2026-05-07 13:05 41.84928 141.76576 22685 ft 417 kts 184°
2026-05-07 13:05 41.82066 141.76864 23069 ft 420 kts 184°
2026-05-07 13:06 41.79146 141.77160 23448 ft 422 kts 185°
2026-05-07 13:06 41.76212 141.77450 23761 ft 424 kts 185°
2026-05-07 13:06 41.73256 141.77737 24037 ft 426 kts 185°
2026-05-07 13:06 41.70292 141.78014 24334 ft 429 kts 185°
2026-05-07 13:07 41.67307 141.78289 24632 ft 430 kts 185°
2026-05-07 13:07 41.64312 141.78559 24931 ft 432 kts 185°
2026-05-07 13:07 41.61310 141.78829 25218 ft 434 kts 185°
2026-05-07 13:07 41.58329 141.79100 25498 ft 436 kts 185°
2026-05-07 13:08 41.55295 141.79379 25766 ft 438 kts 185°
2026-05-07 13:08 41.52260 141.79621 26020 ft 436 kts 188°
2026-05-07 13:08 41.49276 141.79372 26540 ft 419 kts 197°
2026-05-07 13:08 41.46518 141.78604 27775 ft 390 kts 202°
2026-05-07 13:09 41.43931 141.77771 28887 ft 377 kts 202°
2026-05-07 13:09 41.41407 141.76968 29572 ft 371 kts 202°
2026-05-07 13:09 41.38906 141.76162 30082 ft 368 kts 202°
2026-05-07 13:09 41.36459 141.75365 30493 ft 366 kts 202°
2026-05-07 13:10 41.33991 141.74556 30911 ft 364 kts 203°
2026-05-07 13:10 41.31533 141.73750 31311 ft 364 kts 203°
2026-05-07 13:10 41.26536 141.72109 31516 ft 377 kts 202°
2026-05-07 13:11 41.23973 141.71273 31635 ft 383 kts 202°
2026-05-07 13:11 41.21364 141.70424 31798 ft 388 kts 202°
2026-05-07 13:11 41.16029 141.68693 31867 ft 402 kts 201°
2026-05-07 13:12 41.10534 141.66914 31865 ft 414 kts 201°
2026-05-07 13:12 41.04920 141.65111 31861 ft 416 kts 201°
2026-05-07 13:13 40.99279 141.63305 31865 ft 417 kts 201°
2026-05-07 13:13 40.93675 141.61519 31864 ft 418 kts 201°
2026-05-07 13:14 40.88018 141.59707 31868 ft 418 kts 201°
2026-05-07 13:14 40.82368 141.57900 31834 ft 418 kts 201°
2026-05-07 13:15 40.76713 141.56091 31837 ft 418 kts 200°
2026-05-07 13:15 40.71047 141.54280 31845 ft 419 kts 200°
2026-05-07 13:16 40.65419 141.52486 31858 ft 419 kts 200°
2026-05-07 13:16 40.59747 141.50693 31863 ft 419 kts 200°
2026-05-07 13:17 40.54069 141.48899 31851 ft 420 kts 200°
2026-05-07 13:17 40.48399 141.47106 31860 ft 420 kts 200°
2026-05-07 13:18 40.42744 141.45308 31867 ft 421 kts 200°
2026-05-07 13:18 40.37049 141.43496 31856 ft 422 kts 200°
2026-05-07 13:19 40.31293 141.41679 31892 ft 431 kts 200°
2026-05-07 13:19 40.25442 141.39837 31894 ft 434 kts 200°
2026-05-07 13:20 40.19561 141.38002 31900 ft 434 kts 199°
2026-05-07 13:20 40.13726 141.36183 31888 ft 435 kts 199°
2026-05-07 13:21 40.07837 141.34343 31905 ft 435 kts 199°
2026-05-07 13:21 40.01948 141.32503 31904 ft 435 kts 199°
2026-05-07 13:22 39.96068 141.30637 31901 ft 434 kts 200°
2026-05-07 13:22 39.90254 141.28701 31889 ft 434 kts 200°
2026-05-07 13:23 39.84383 141.26740 31881 ft 436 kts 200°
2026-05-07 13:23 39.78493 141.24807 31894 ft 437 kts 199°
2026-05-07 13:24 39.72593 141.22881 31885 ft 437 kts 199°
2026-05-07 13:24 39.66724 141.20966 31898 ft 438 kts 199°
2026-05-07 13:25 39.60818 141.19033 31894 ft 438 kts 199°
2026-05-07 13:25 39.54910 141.17113 31904 ft 438 kts 199°
2026-05-07 13:26 39.48994 141.15204 31903 ft 438 kts 199°
2026-05-07 13:26 39.43063 141.13339 31892 ft 441 kts 195°
2026-05-07 13:27 39.36962 141.12279 31899 ft 443 kts 193°
2026-05-07 13:27 39.30856 141.11272 31913 ft 441 kts 193°
2026-05-07 13:28 39.24827 141.10276 31940 ft 438 kts 193°
2026-05-07 13:28 39.18820 141.09279 31943 ft 433 kts 193°
2026-05-07 13:29 39.12869 141.08298 31945 ft 430 kts 193°
2026-05-07 13:29 39.06945 141.07320 31937 ft 428 kts 193°
2026-05-07 13:30 39.01048 141.06349 31915 ft 426 kts 193°
2026-05-07 13:30 38.95209 141.05389 31912 ft 426 kts 193°
2026-05-07 13:31 38.89374 141.04428 31896 ft 412 kts 193°
2026-05-07 13:31 38.86600 141.03985 31654 ft 391 kts 194°
2026-05-07 13:31 38.83944 141.03559 31071 ft 380 kts 194°
2026-05-07 13:32 38.81340 141.03137 30443 ft 376 kts 194°
2026-05-07 13:32 38.78751 141.02708 29733 ft 377 kts 195°
2026-05-07 13:32 38.76079 141.02249 28247 ft 401 kts 194°
2026-05-07 13:32 38.73201 141.01742 26847 ft 428 kts 193°
2026-05-07 13:33 38.70189 141.01226 25332 ft 444 kts 193°
2026-05-07 13:33 38.67105 141.00721 23896 ft 453 kts 192°
2026-05-07 13:33 38.63985 141.00226 22714 ft 456 kts 192°
2026-05-07 13:33 38.60863 140.99740 21871 ft 449 kts 191°
2026-05-07 13:34 38.57779 140.99256 21057 ft 443 kts 191°
2026-05-07 13:34 38.51817 140.98304 20065 ft 422 kts 191°
2026-05-07 13:34 38.48938 140.97843 19204 ft 412 kts 191°
2026-05-07 13:35 38.46088 140.97393 18161 ft 412 kts 189°
2026-05-07 13:35 38.43219 140.97613 17205 ft 418 kts 173°
2026-05-07 13:35 38.40396 140.98436 16510 ft 415 kts 171°
2026-05-07 13:35 38.38535 140.98991 16041 ft 413 kts 171°
2026-05-07 13:36 38.34846 141.00079 15153 ft 409 kts 171°
2026-05-07 13:36 38.32084 141.00883 14526 ft 406 kts 171°
2026-05-07 13:36 38.29340 141.01671 13903 ft 403 kts 171°
2026-05-07 13:36 38.26619 141.02445 13232 ft 399 kts 171°
2026-05-07 13:37 38.23915 141.03207 12568 ft 395 kts 171°
2026-05-07 13:37 38.22161 141.03697 12223 ft 381 kts 171°
2026-05-07 13:37 38.19615 141.04402 11319 ft 370 kts 171°
2026-05-07 13:37 38.17129 141.05087 10355 ft 362 kts 171°
2026-05-07 13:38 38.14696 141.05753 9463 ft 353 kts 171°
2026-05-07 13:38 38.12395 141.06380 9262 ft 324 kts 171°
2026-05-07 13:38 38.10284 141.06962 9126 ft 298 kts 171°
2026-05-07 13:38 38.07713 141.07680 8660 ft 279 kts 171°
2026-05-07 13:39 38.06439 141.08031 8264 ft 276 kts 171°
2026-05-07 13:39 38.04571 141.08534 7644 ft 273 kts 171°
2026-05-07 13:39 38.02716 141.09013 7020 ft 271 kts 171°
2026-05-07 13:39 38.00872 141.09472 6397 ft 269 kts 169°
2026-05-07 13:40 37.99168 141.10414 5786 ft 272 kts 142°
2026-05-07 13:40 37.98026 141.12267 5399 ft 274 kts 114°
2026-05-07 13:40 37.97686 141.14620 5009 ft 274 kts 88°
2026-05-07 13:40 37.97899 141.17019 4598 ft 274 kts 82°
2026-05-07 13:41 37.98214 141.19386 4208 ft 272 kts 74°
2026-05-07 13:41 37.99109 141.21454 3836 ft 269 kts 45°
2026-05-07 13:41 38.00653 141.22716 3448 ft 265 kts 17°
2026-05-07 13:41 38.02461 141.22919 3070 ft 262 kts 355°
2026-05-07 13:42 38.04264 141.22653 2669 ft 260 kts 352°
2026-05-07 13:42 38.06053 141.22334 2296 ft 258 kts 351°
2026-05-07 13:42 38.07824 141.22012 1888 ft 257 kts 351°
2026-05-07 13:42 38.09561 141.21699 1540 ft 254 kts 352°
2026-05-07 13:43 38.11256 141.21392 1469 ft 235 kts 351°
2026-05-07 13:43 38.12809 141.21110 1483 ft 220 kts 351°
2026-05-07 13:43 38.14320 141.20836 1490 ft 219 kts 351°
2026-05-07 13:43 38.15822 141.20562 1484 ft 218 kts 351°
2026-05-07 13:44 38.17317 141.20292 1487 ft 218 kts 351°
2026-05-07 13:44 38.18817 141.20012 1482 ft 217 kts 348°
2026-05-07 13:44 38.20145 141.19168 1488 ft 212 kts 314°
2026-05-07 13:44 38.20800 141.17591 1482 ft 199 kts 278°
2026-05-07 13:45 38.20568 141.15937 1471 ft 188 kts 242°
2026-05-07 13:45 38.19861 141.14624 1477 ft 175 kts 233°
2026-05-07 13:45 38.19105 141.13445 1504 ft 170 kts 232°
2026-05-07 13:45 38.18351 141.12303 1487 ft 168 kts 231°
2026-05-07 13:46 38.17608 141.11182 1488 ft 168 kts 231°
2026-05-07 13:46 38.16856 141.10052 1489 ft 168 kts 231°
2026-05-07 13:46 38.16110 141.08913 1492 ft 167 kts 236°
2026-05-07 13:46 38.15703 141.07561 1486 ft 164 kts 265°
2026-05-07 13:47 38.15554 141.06117 1484 ft 165 kts 264°
2026-05-07 13:47 38.15398 141.04672 1491 ft 165 kts 265°
2026-05-07 13:47 38.15247 141.03223 1469 ft 166 kts 265°
2026-05-07 13:47 38.15097 141.01768 1327 ft 166 kts 265°
2026-05-07 13:48 38.14949 141.00326 1130 ft 162 kts 264°
2026-05-07 13:48 38.14812 140.98986 951 ft 150 kts 264°
2026-05-07 13:48 38.14680 140.97694 749 ft 146 kts 263°
2026-05-07 13:48 38.14550 140.96424 562 ft 145 kts 264°
2026-05-07 13:49 38.14420 140.95154 369 ft 145 kts 264°
2026-05-07 13:49 38.14291 140.93882 154 ft 145 kts 264°
2026-05-07 13:49 38.14151 140.92528 427 ft 161 kts 264°
2026-05-07 13:49 38.13994 140.91094 1307 ft 165 kts 263°
2026-05-07 13:50 38.13821 140.89622 2083 ft 176 kts 263°
2026-05-07 13:50 38.13632 140.87993 2408 ft 197 kts 263°
2026-05-07 13:50 38.13357 140.86220 2820 ft 210 kts 253°
2026-05-07 13:50 38.12577 140.84676 2967 ft 215 kts 220°
2026-05-07 13:51 38.11223 140.83946 2983 ft 215 kts 185°
2026-05-07 13:51 38.09784 140.84340 2985 ft 215 kts 149°
2026-05-07 13:51 38.08786 140.85722 2979 ft 220 kts 113°
2026-05-07 13:51 38.08367 140.87617 2968 ft 227 kts 102°
2026-05-07 13:52 38.08008 140.89579 2982 ft 229 kts 102°
2026-05-07 13:52 38.07666 140.91555 2985 ft 229 kts 102°
2026-05-07 13:52 38.07333 140.93531 2985 ft 229 kts 101°
2026-05-07 13:52 38.07002 140.95505 2985 ft 229 kts 101°
2026-05-07 13:53 38.06672 140.97481 2985 ft 229 kts 101°
2026-05-07 13:53 38.06343 140.99447 2985 ft 229 kts 102°
2026-05-07 13:53 38.06010 141.01430 2985 ft 229 kts 101°
2026-05-07 13:53 38.05681 141.03404 2985 ft 229 kts 101°
2026-05-07 13:54 38.05350 141.05377 2986 ft 229 kts 101°
2026-05-07 13:54 38.05019 141.07345 2825 ft 227 kts 101°
2026-05-07 13:54 38.04692 141.09275 2524 ft 227 kts 101°
2026-05-07 13:54 38.04354 141.11228 2218 ft 226 kts 101°
2026-05-07 13:55 38.04009 141.13173 1922 ft 226 kts 101°
2026-05-07 13:55 38.03657 141.15113 1619 ft 225 kts 101°
2026-05-07 13:55 38.03305 141.17030 1483 ft 223 kts 99°
2026-05-07 13:55 38.03364 141.18960 1481 ft 219 kts 67°
2026-05-07 13:56 38.04246 141.20473 1484 ft 215 kts 32°
2026-05-07 13:56 38.05635 141.21058 1484 ft 213 kts
2026-05-07 13:56 38.07116 141.20929 1482 ft 214 kts 352°
2026-05-07 13:56 38.08594 141.20653 1485 ft 215 kts 344°
2026-05-07 13:57 38.09868 141.19707 1489 ft 215 kts 315°
2026-05-07 13:57 38.10871 141.18327 1483 ft 215 kts 312°
2026-05-07 13:57 38.11857 141.16898 1483 ft 215 kts 311°
2026-05-07 13:57 38.12837 141.15465 1479 ft 215 kts 311°
2026-05-07 13:58 38.13816 141.14032 1486 ft 215 kts 311°
2026-05-07 13:58 38.14792 141.12598 1492 ft 215 kts 311°
2026-05-07 13:58 38.15585 141.11001 1477 ft 216 kts 291°
2026-05-07 13:58 38.15833 141.09129 1489 ft 217 kts 268°
2026-05-07 13:59 38.15661 141.07264 1490 ft 210 kts 264°
2026-05-07 13:59 38.15471 141.05440 1485 ft 206 kts 264°
2026-05-07 13:59 38.15293 141.03710 1506 ft 192 kts 264°
2026-05-07 13:59 38.15124 141.02058 1361 ft 182 kts 265°
2026-05-07 14:00 38.14968 141.00530 1159 ft 168 kts 264°
2026-05-07 14:00 38.14823 140.99104 952 ft 157 kts 264°
2026-05-07 14:00 38.14690 140.97797 760 ft 148 kts 264°
2026-05-07 14:00 38.14559 140.96517 570 ft 145 kts 264°
2026-05-07 14:01 38.14430 140.95257 379 ft 144 kts 264°
2026-05-07 14:01 38.14301 140.93994 183 ft 145 kts 264°
2026-05-07 14:01 38.14167 140.92637 492 ft 161 kts 264°
2026-05-07 14:01 38.14026 140.91207 1406 ft 164 kts 264°
2026-05-07 14:02 38.13490 140.89896 2273 ft 180 kts 220°
2026-05-07 14:02 38.12244 140.89386 2871 ft 209 kts 176°
2026-05-07 14:02 38.10770 140.89934 2985 ft 231 kts 155°
2026-05-07 14:02 38.09338 140.90858 2999 ft 236 kts 152°
2026-05-07 14:03 38.07826 140.91894 3007 ft 254 kts 151°
2026-05-07 14:03 38.06282 140.92957 3006 ft 257 kts 151°
2026-05-07 14:03 38.04690 140.94053 3005 ft 257 kts 151°
2026-05-07 14:03 38.03284 140.95346 3002 ft 247 kts 131°
2026-05-07 14:04 38.02436 140.97135 3008 ft 231 kts 107°
2026-05-07 14:04 38.02222 140.99119 3005 ft 227 kts 84°
2026-05-07 14:04 38.02625 141.01031 3007 ft 225 kts 62°
2026-05-07 14:04 38.03572 141.02597 3007 ft 224 kts 39°
2026-05-07 14:05 38.04909 141.03580 3006 ft 223 kts 17°
2026-05-07 14:05 38.06438 141.03843 3006 ft 223 kts 355°
2026-05-07 14:05 38.07929 141.03360 3005 ft 223 kts 333°
2026-05-07 14:05 38.09165 141.02199 3008 ft 223 kts 311°
2026-05-07 14:06 38.10017 141.00561 3006 ft 223 kts 300°
2026-05-07 14:06 38.10791 140.98852 3009 ft 223 kts 300°
2026-05-07 14:06 38.11560 140.97167 3006 ft 224 kts 300°
2026-05-07 14:06 38.12342 140.95458 3006 ft 223 kts 300°
2026-05-07 14:07 38.13124 140.93756 3008 ft 224 kts 300°
2026-05-07 14:07 38.13901 140.92044 3010 ft 223 kts 297°
2026-05-07 14:07 38.14184 140.90146 3010 ft 223 kts 258°
2026-05-07 14:07 38.13426 140.88457 3008 ft 225 kts 225°
2026-05-07 14:08 38.12253 140.87132 3010 ft 227 kts 220°
2026-05-07 14:08 38.11106 140.85769 3001 ft 226 kts 236°
2026-05-07 14:08 38.10652 140.83916 3003 ft 223 kts 276°
2026-05-07 14:08 38.11271 140.82170 3009 ft 221 kts 316°
2026-05-07 14:09 38.12585 140.81199 3009 ft 221 kts 346°
2026-05-07 14:09 38.14112 140.81171 3006 ft 222 kts 15°
2026-05-07 14:09 38.15451 140.82109 3006 ft 223 kts 46°
2026-05-07 14:09 38.16171 140.83804 3004 ft 225 kts 79°
2026-05-07 14:10 38.16029 140.85763 3012 ft 232 kts 112°
2026-05-07 14:10 38.15232 140.87728 3015 ft 261 kts 120°
2026-05-07 14:10 38.14285 140.89733 3005 ft 266 kts 121°
2026-05-07 14:10 38.13321 140.91732 2694 ft 265 kts 121°
2026-05-07 14:11 38.12348 140.93721 2292 ft 265 kts 121°
2026-05-07 14:11 38.11364 140.95698 1884 ft 264 kts 121°
2026-05-07 14:11 38.10396 140.97617 1724 ft 254 kts 121°
2026-05-07 14:11 38.09460 140.99455 1606 ft 242 kts 121°
2026-05-07 14:12 38.08578 141.01181 1506 ft 230 kts 121°
2026-05-07 14:12 38.07994 141.02993 1507 ft 221 kts 97°
2026-05-07 14:12 38.07821 141.04926 1506 ft 220 kts 92°
2026-05-07 14:12 38.07716 141.06862 1506 ft 220 kts 91°
2026-05-07 14:13 38.07620 141.08799 1508 ft 220 kts 91°
2026-05-07 14:13 38.07525 141.10734 1505 ft 220 kts 91°
2026-05-07 14:13 38.07431 141.12673 1505 ft 219 kts 91°
2026-05-07 14:13 38.07336 141.14607 1505 ft 220 kts 91°
2026-05-07 14:14 38.07243 141.16545 1501 ft 220 kts 91°
2026-05-07 14:14 38.07149 141.18479 1502 ft 220 kts 91°
2026-05-07 14:14 38.07053 141.20417 1506 ft 220 kts 91°
2026-05-07 14:14 38.07134 141.22332 1500 ft 217 kts 69°
2026-05-07 14:15 38.07973 141.23866 1502 ft 213 kts 34°
2026-05-07 14:15 38.09334 141.24479 1503 ft 210 kts 359°
2026-05-07 14:15 38.10747 141.24168 1504 ft 210 kts 343°
2026-05-07 14:15 38.12109 141.23538 1501 ft 210 kts 327°
2026-05-07 14:16 38.13060 141.22161 1505 ft 211 kts 297°
2026-05-07 14:16 38.13672 141.20364 1513 ft 240 kts 292°
2026-05-07 14:16 38.14285 141.18320 1504 ft 252 kts 291°
2026-05-07 14:16 38.14901 141.16229 1505 ft 254 kts 291°
2026-05-07 14:17 38.15517 141.14125 1504 ft 254 kts 291°
2026-05-07 14:17 38.16128 141.12018 1506 ft 254 kts 290°
2026-05-07 14:17 38.16309 141.09837 1503 ft 246 kts 258°
2026-05-07 14:17 38.15765 141.07887 1492 ft 229 kts 254°
2026-05-07 14:18 38.15487 141.05975 1508 ft 214 kts 265°
2026-05-07 14:18 38.15329 141.04200 1525 ft 194 kts 266°
2026-05-07 14:18 38.15169 141.02525 1428 ft 189 kts 265°
2026-05-07 14:18 38.15005 141.00893 1222 ft 181 kts 265°
2026-05-07 14:19 38.14851 140.99387 1024 ft 162 kts 264°
2026-05-07 14:19 38.14713 140.98029 799 ft 149 kts 264°
2026-05-07 14:19 38.14582 140.96746 602 ft 144 kts 263°
2026-05-07 14:19 38.14454 140.95489 430 ft 142 kts 263°
2026-05-07 14:20 38.14330 140.94244 216 ft 142 kts 264°
2026-05-07 14:20 38.14200 140.93021 34 ft 141 kts 263°
2026-05-07 14:20 38.14093 140.91977 18 ft 83 kts 263°
2026-05-07 14:20 38.14053 140.91583 16 ft 27 kts 263°
2026-05-07 14:21 38.14030 140.91348 16 ft 27 kts 263°
2026-05-07 14:21 38.14006 140.91113 17 ft 20 kts 262°
2026-05-07 14:21 38.13918 140.91022 16 ft 19 kts 179°
2026-05-07 14:21 38.13839 140.91127 13 ft 19 kts 79°
2026-05-07 14:22 38.13854 140.91299 13 ft 20 kts 84°
2026-05-07 14:22 38.13875 140.91481 13 ft 21 kts 82°
2026-05-07 14:22 38.13893 140.91660 14 ft 19 kts 84°
2026-05-07 14:22 38.13908 140.91818 13 ft 13 kts 82°
2026-05-07 14:23 38.13915 140.91876 15 ft 5 kts 82°
2026-05-07 14:23 38.13920 140.91919 13 ft 4 kts 81°
2026-05-07 14:23 38.13924 140.91954 13 ft 3 kts 81°
2026-05-07 14:23 38.13927 140.91981 13 ft 3 kts 82°
2026-05-07 14:24 38.13931 140.92018 13 ft 4 kts 82°
2026-05-07 14:24 38.13935 140.92052 13 ft 3 kts 82°
2026-05-07 14:24 38.13937 140.92076 13 ft 3 kts 83°
2026-05-07 14:24 38.13940 140.92105 13 ft 4 kts 83°
2026-05-07 14:25 38.13945 140.92158 14 ft 7 kts 83°
2026-05-07 14:25 38.13950 140.92213 13 ft 6 kts 83°
2026-05-07 14:25 38.13961 140.92321 14 ft 21 kts 83°
2026-05-07 14:25 38.13980 140.92519 13 ft 23 kts 83°
2026-05-07 14:26 38.14001 140.92732 15 ft 25 kts 82°